Terug naar catalogus

TIANMU-1 03

ActiefWetenschapSSO
NORAD 55973·PAYLOAD·🇨🇳 China

Gelanceerd Mar 22, 2023 vanaf Jiuquan Satellite Launch Center

Loading…

Volgende Passages (komende 24 uur)

TLE

VersSource: Space-Track

Epoch: Sep 14, 2026, 22:33 UTC

1 55973U 23039A   26257.93993142  .00015721  00000-0  28589-3 0  9999
2 55973  97.5269  75.6131 0003558 116.4403 243.7213 15.49613664194722

Volg TIANMU-1 03 in realtime met AllMySat

Download on the App Store